Location: Waco, TX
(31.5480°N, 97.1670°W)
Time: 10:15:39
(UTC-05:00)

ISS - Pass Details

Date: 16 June 2018
Orbit: 402 x 406 km, 51.6° (Epoch: 20 June)

Event Time Altitude Azimuth Distance (km) Brightness Sun altitude
Rises 18:05:34 0° 329° (NNW) 2,321 0.6 29.2°
Reaches altitude 10° 18:08:04 10° 348° (NNW) 1,458 -0.6 28.7°
Maximum altitude 18:10:30 19° 36° (NE) 1,028 -1.9 28.2°
Drops below altitude 10° 18:12:56 10° 85° (E) 1,452 -1.5 27.7°
Sets 18:15:24 0° 104° (ESE) 2,307 -0.6 27.1°
